Back to catalog

MEHDA

AliveScienceLEO
NORAD 58849·PAYLOAD·🇮🇷 Iran
This satellite name has not been confirmed by official sources yet.

Launched Jan 28, 2024 from Semnan Space Center

Loading…

Next Passes (next 24 hours)

TLE

FreshSource: Space-Track

Epoch: Sep 14, 2026, 14:52 UTC

1 58849U 24018A   26257.61970878  .00000881  00000-0  12026-3 0  9998
2 58849  58.6878 276.3477 0426176 210.5580 146.9984 14.39842454138053

Track MEHDA in real time with AllMySat

Download on the App Store